Weather History for KAKQ - June, 2013

Change the Weather History Date:

Thursday, June 13, 2013

  Actual Average (KJGG) Record (KJGG)
Temperature  
Mean Temperature 82 °F -  
Max Temperature 95 °F 84 °F 96 °F (2013)
Min Temperature 69 °F 61 °F 48 °F (1952)
Cooling Degree Days 17    
Growing Degree Days 32 (Base 50)    
Moisture  
Dew Point 70 °F    
Average Humidity 77    
Maximum Humidity 94    
Minimum Humidity 47    
Precipitation  
Precipitation 0.20 in - - ()
Sea Level Pressure  
Sea Level Pressure 29.67 in    
Wind  
Wind Speed 5 mph (WSW)    
Max Wind Speed 13 mph    
Max Gust Speed 38 mph    
Visibility 8 miles    
Events Rain    
Averages and records for this station are not official NWS values.
T = Trace of Precipitation, MM = Missing Value Source: NWS Daily Summary

Daily Weather History Graph

Daily Weather History Graph

Search for Another Location

Airport or City:

Trip Planner

Search our weather history database for the weather conditions in past years. The results will help you decide how hot, cold, wet, or windy it might be!

Date:

Astronomy

Jun. 13, 2013 Rise Set
Actual Time 5:47 AM EDT 8:28 PM EDT
Civil Twilight 5:17 AM EDT 8:59 PM EDT
Nautical Twilight 4:38 AM EDT 9:37 PM EDT
Astronomical Twilight 3:55 AM EDT 10:20 PM EDT
Moon 10:17 AM EDT (6/13) 11:40 PM EDT (6/13)
Length of Visible Light 15h 42m
Length of Day
14h 40m
Waxing Crescent, 21% of the Moon is Illuminated
Jun 13
Waxing Crescent
Jun 16
First Quarter
Jun 23
Full
Jun 30
Last Quarter
Jul 8
New

Hourly Weather History & Observations

Time (EDT) Temp. Heat Index Dew Point Humidity Pressure Visibility Wind Dir Wind Speed Gust Speed Precip Events Conditions
12:54 AM 78.1 °F - 73.0 °F 84% 29.83 in 9.0 mi Calm Calm - N/A   Clear
1:54 AM 77.0 °F - 73.0 °F 88% 29.81 in 8.0 mi Calm Calm - N/A   Clear
2:54 AM 77.0 °F - 73.0 °F 88% 29.79 in 8.0 mi Variable 3.5 mph - N/A   Clear
3:54 AM 75.9 °F - 72.0 °F 87% 29.78 in 8.0 mi SSW 3.5 mph - N/A   Clear
4:54 AM 75.9 °F - 72.0 °F 87% 29.77 in 8.0 mi South 3.5 mph - N/A   Clear
5:54 AM 75.9 °F - 73.0 °F 91% 29.75 in 7.0 mi South 4.6 mph - N/A   Clear
6:54 AM 75.9 °F - 73.0 °F 91% 29.75 in 6.0 mi Variable 3.5 mph - N/A   Clear
7:54 AM 78.1 °F - 73.9 °F 87% 29.73 in 7.0 mi SW 5.8 mph - N/A   Clear
8:54 AM 82.0 °F 87.9 °F 73.9 °F 76% 29.73 in 10.0 mi SW 6.9 mph - N/A   Clear
9:54 AM 87.1 °F 96.3 °F 75.0 °F 67% 29.72 in 10.0 mi Variable 5.8 mph - N/A   Clear
10:54 AM 90.0 °F 99.0 °F 73.9 °F 59% 29.71 in 10.0 mi West 9.2 mph - N/A   Clear
11:54 AM 91.0 °F 99.3 °F 73.0 °F 55% 29.69 in 10.0 mi West 8.1 mph - N/A   Clear
12:54 PM 91.9 °F 98.4 °F 71.1 °F 50% 29.63 in 10.0 mi WSW 9.2 mph 17.3 mph N/A   Clear
1:54 PM 93.0 °F 100.7 °F 72.0 °F 50% 29.61 in 10.0 mi SSW 10.4 mph 17.3 mph N/A   Clear
2:54 PM 93.9 °F 102.1 °F 72.0 °F 49% 29.57 in 10.0 mi SW 8.1 mph 19.6 mph N/A   Clear
3:54 PM 95.0 °F 104.5 °F 73.0 °F 49% 29.54 in 10.0 mi WSW 12.7 mph 20.7 mph N/A   Partly Cloudy
4:54 PM 93.0 °F 99.0 °F 70.0 °F 47% 29.57 in 10.0 mi West 12.7 mph 23.0 mph N/A   Scattered Clouds
5:14 PM 77.0 °F - 62.6 °F 61% 29.60 in 10.0 mi NW 12.7 mph 38.0 mph N/A   Mostly Cloudy
5:37 PM 71.6 °F - 66.2 °F 83% 29.59 in 1.8 mi Variable 4.6 mph 18.4 mph 0.06 in Rain Heavy Rain
5:47 PM 71.6 °F - 66.2 °F 83% 29.59 in 4.0 mi Variable 4.6 mph - 0.11 in Rain Light Rain
5:54 PM 71.1 °F - 68.0 °F 90% 29.60 in 6.0 mi West 5.8 mph - 0.12 in Rain Light Rain
6:54 PM 71.1 °F - 68.0 °F 90% 29.60 in 10.0 mi SSW 5.8 mph - 0.00 in   Scattered Clouds
7:54 PM 70.0 °F - 68.0 °F 93% 29.63 in 2.5 mi WSW 8.1 mph - 0.04 in Rain Rain
8:04 PM 69.8 °F - 68.0 °F 94% 29.62 in 4.0 mi West 4.6 mph 16.1 mph 0.03 in Rain Light Rain
8:54 PM 70.0 °F - 68.0 °F 93% 29.58 in 10.0 mi WNW 4.6 mph - 0.04 in   Clear
9:54 PM 70.0 °F - 66.9 °F 90% 29.63 in 10.0 mi WSW 4.6 mph - N/A   Clear
10:54 PM 69.1 °F - 66.9 °F 93% 29.64 in 10.0 mi West 3.5 mph - N/A   Clear
11:54 PM 69.1 °F - 66.9 °F 93% 29.65 in 10.0 mi West 3.5 mph - N/A   Clear